CW2014 Weather Reports


time (UTC)temp
C
wind
direction
speed
KPH
gust
KPH
rain 1hr
cm
rain 24hr
cm
rain mn
cm
humidity
%
barometer
mb
20260510091539 23 147 4.8 14.5 0.00 0.00 0.00 23 1007.2
20260510091024 23 163 8.0 14.5 0.00 0.00 0.00 24 1007.2
20260510090523 23 140 3.2 8.0 0.00 0.00 0.00 24 1007.2
20260510090039 23 149 1.6 6.4 0.00 0.00 0.00 24 1007.1
20260510085523 23 98 1.6 6.4 0.00 0.00 0.00 24 1007.0
20260510085024 23 126 1.6 6.4 0.00 0.00 0.00 24 1007.0
20260510084539 23 161 3.2 8.0 0.00 0.00 0.00 24 1007.0
20260510084100 23 159 3.2 9.7 0.00 0.00 0.00 25 1007.0
20260510083529 23 127 3.2 9.7 0.00 0.00 0.00 26 1007.0
20260510083041 23 142 1.6 6.4 0.00 0.00 0.00 26 1007.0
20260510082525 23 117 0.0 0.0 0.00 0.00 0.00 26 1007.0
20260510082024 23 0 0.0 0.0 0.00 0.00 0.00 26 1007.1
20260510081543 23 0 0.0 0.0 0.00 0.00 0.00 27 1007.1
20260510081024 23 0 0.0 0.0 0.00 0.00 0.00 27 1007.1
20260510080523 23 0 0.0 1.6 0.00 0.00 0.00 28 1007.0
20260510080039 23 0 0.0 3.2 0.00 0.00 0.00 28 1007.0
20260510075525 23 0 0.0 3.2 0.00 0.00 0.00 29 1007.1
20260510075023 24 123 0.0 4.8 0.00 0.00 0.00 28 1007.1
20260510074541 24 123 1.6 4.8 0.00 0.00 0.00 28 1007.0
20260510074023 24 205 0.0 3.2 0.00 0.00 0.00 28 1007.0
20260510073525 24 205 0.0 4.8 0.00 0.00 0.00 27 1007.0
20260510073038 24 205 1.6 4.8 0.00 0.00 0.00 28 1006.9
20260510072524 24 0 0.0 0.0 0.00 0.00 0.00 27 1006.9
20260510072024 24 0 0.0 0.0 0.00 0.00 0.00 28 1006.8
20260510071543 25 0 0.0 1.6 0.00 0.00 0.00 28 1006.9
20260510071024 25 0 0.0 1.6 0.00 0.00 0.00 27 1006.9
20260510070527 25 0 0.0 1.6 0.00 0.00 0.00 27 1006.9
20260510070042 25 205 0.0 3.2 0.00 0.00 0.00 27 1006.9
20260510065524 25 205 0.0 3.2 0.00 0.00 0.00 27 1006.9
20260510065023 25 0 0.0 3.2 0.00 0.00 0.00 26 1006.8
20260510064538 25 205 0.0 1.6 0.00 0.00 0.00 26 1006.8
20260510064025 25 0 0.0 4.8 0.00 0.00 0.00 26 1006.8
20260510063525 26 0 0.0 4.8 0.00 0.00 0.00 24 1006.8
20260510063040 26 0 0.0 3.2 0.00 0.00 0.00 25 1006.8
20260510062522 26 0 0.0 3.2 0.00 0.00 0.00 24 1006.6
20260510062025 26 0 0.0 6.4 0.00 0.00 0.00 24 1006.6
20260510061540 26 0 0.0 6.4 0.00 0.00 0.00 23 1006.6
20260510061025 26 201 0.0 4.8 0.00 0.00 0.00 24 1006.8
20260510060526 26 187 0.0 4.8 0.00 0.00 0.00 23 1006.8
20260510060050 27 0 0.0 0.0 0.00 0.00 0.00 23 1006.6
20260510055522 27 0 0.0 0.0 0.00 0.00 0.00 23 1006.6
20260510055024 27 0 0.0 0.0 0.00 0.00 0.00 22 1006.5
20260510054539 27 0 0.0 0.0 0.00 0.00 0.00 21 1006.5
20260510054023 28 0 0.0 1.6 0.00 0.00 0.00 22 1006.5
20260510053522 28 0 0.0 3.2 0.00 0.00 0.00 20 1006.4
20260510053038 28 0 0.0 3.2 0.00 0.00 0.00 19 1006.2
20260510052522 28 251 0.0 3.2 0.00 0.00 0.00 19 1006.2
20260510052025 28 251 1.6 3.2 0.00 0.00 0.00 19 1006.3
20260510051557 28 242 1.6 3.2 0.00 0.00 0.00 19 1006.6
20260510051025 29 240 0.0 3.2 0.00 0.00 0.00 19 1006.5
20260510050525 29 240 1.6 3.2 0.00 0.00 0.00 18 1006.4
20260510050043 29 254 1.6 4.8 0.00 0.00 0.00 19 1006.4
20260510045529 29 242 1.6 4.8 0.00 0.00 0.00 18 1006.3
20260510045025 29 254 0.0 3.2 0.00 0.00 0.00 19 1006.2
20260510044542 30 0 0.0 3.2 0.00 0.00 0.00 18 1006.2
20260510044027 30 254 0.0 3.2 0.00 0.00 0.00 18 1006.2
20260510043523 30 254 0.0 3.2 0.00 0.00 0.00 19 1006.2
20260510043057 30 0 0.0 3.2 0.00 0.00 0.00 17 1006.0
20260510042523 30 254 0.0 3.2 0.00 0.00 0.00 17 1006.2
20260510042025 30 254 0.0 3.2 0.00 0.00 0.00 17 1006.1
20260510041539 31 254 0.0 3.2 0.00 0.00 0.00 16 1006.0
20260510041022 31 256 0.0 3.2 0.00 0.00 0.00 16 1006.0
20260510040525 31 256 0.0 3.2 0.00 0.00 0.00 16 1006.0
20260510040039 31 256 1.6 3.2 0.00 0.00 0.00 15 1005.9
20260510035524 31 257 0.0 3.2 0.00 0.00 0.00 15 1005.9
20260510035027 32 0 0.0 3.2 0.00 0.00 0.00 15 1005.9
20260510034545 32 0 0.0 3.2 0.00 0.00 0.00 14 1005.7
20260510034024 32 258 1.6 3.2 0.00 0.00 0.00 14 1005.8
20260510033523 32 266 0.0 6.4 0.00 0.00 0.00 13 1005.6
20260510033041 33 0 0.0 6.4 0.00 0.00 0.00 13 1005.6
20260510032527 33 262 1.6 6.4 0.00 0.00 0.00 13 1005.6
20260510032024 33 302 3.2 6.4 0.00 0.00 0.00 13 1005.5
20260510031607 33 294 1.6 4.8 0.00 0.00 0.00 13 1005.4
20260510031023 33 300 1.6 4.8 0.00 0.00 0.00 13 1005.3
20260510030524 33 296 1.6 4.8 0.00 0.00 0.00 12 1005.2
20260510030040 33 288 1.6 4.8 0.00 0.00 0.00 12 1005.3
20260510025524 34 266 1.6 6.4 0.00 0.00 0.00 12 1005.2
20260510025027 34 281 1.6 6.4 0.00 0.00 0.00 12 1005.2
20260510024537 34 273 1.6 6.4 0.00 0.00 0.00 12 1005.1
20260510024024 35 284 1.6 12.9 0.00 0.00 0.00 12 1005.1
20260510023524 35 298 3.2 12.9 0.00 0.00 0.00 12 1005.0
20260510023047 35 0 3.2 9.7 0.00 0.00 0.00 11 1005.0
20260510022524 35 307 3.2 9.7 0.00 0.00 0.00 11 1004.9
20260510022024 35 309 3.2 14.5 0.00 0.00 0.00 11 1004.9
20260510021543 35 306 3.2 14.5 0.00 0.00 0.00 11 1004.9
20260510021023 36 284 4.8 14.5 0.00 0.00 0.00 11 1004.8
20260510020523 36 275 3.2 14.5 0.00 0.00 0.00 11 1004.7
20260510020039 36 296 4.8 14.5 0.00 0.00 0.00 11 1004.6
20260510015524 36 292 4.8 14.5 0.00 0.00 0.00 11 1004.6
20260510015024 36 281 4.8 14.5 0.00 0.00 0.00 10 1004.6
20260510014535 36 235 4.8 14.5 0.00 0.00 0.00 10 1004.6
20260510014023 37 238 4.8 16.1 0.00 0.00 0.00 10 1004.6
20260510013525 37 209 6.4 16.1 0.00 0.00 0.00 10 1004.5
20260510013042 37 261 4.8 16.1 0.00 0.00 0.00 10 1004.6
20260510012527 37 296 4.8 19.3 0.00 0.00 0.00 10 1004.6
20260510012024 37 307 4.8 19.3 0.00 0.00 0.00 10 1004.7
20260510011553 37 288 8.0 19.3 0.00 0.00 0.00 10 1004.7
20260510011027 37 300 4.8 17.7 0.00 0.00 0.00 10 1004.6
20260510010523 37 313 6.4 17.7 0.00 0.00 0.00 10 1004.6
20260510010049 37 272 8.0 17.7 0.00 0.00 0.00 10 1004.6
20260510005524 37 275 4.8 16.1 0.00 0.00 0.00 10 1004.6
20260510005025 37 0 8.0 17.7 0.00 0.00 0.00 10 1004.7
20260510004539 37 309 6.4 17.7 0.00 0.00 0.00 10 1004.7
20260510004027 37 324 4.8 17.7 0.00 0.00 0.00 9 1004.7
20260510003524 37 273 3.2 17.7 0.00 0.00 0.00 9 1004.6
20260510003041 37 297 6.4 20.9 0.00 0.00 0.00 9 1004.7
20260510002523 38 295 4.8 20.9 0.00 0.00 0.00 9 1004.7
20260510002027 37 283 8.0 17.7 0.00 0.00 0.00 9 1004.8
20260510001540 37 258 1.6 19.3 0.00 0.00 0.00 9 1004.8
20260510001024 38 304 6.4 19.3 0.00 0.00 0.00 8 1004.7
20260510000524 38 269 6.4 17.7 0.00 0.00 0.00 9 1004.8
20260510000042 38 275 6.4 20.9 0.00 0.00 0.00 9 1004.7
20260509235522 38 238 4.8 20.9 0.00 0.00 0.00 9 1004.8
20260509235022 38 207 6.4 16.1 0.00 0.00 0.00 9 1004.8
20260509234538 38 252 4.8 25.7 0.00 0.00 0.00 9 1004.8
20260509234029 38 304 8.0 25.7 0.00 0.00 0.00 9 1004.9
20260509233525 38 298 4.8 16.1 0.00 0.00 0.00 10 1005.0
20260509233043 38 336 3.2 16.1 0.00 0.00 0.00 9 1005.0
20260509232524 38 283 3.2 12.9 0.00 0.00 0.00 10 1005.1
20260509232024 38 337 3.2 17.7 0.00 0.00 0.00 9 1005.1
20260509231544 38 209 6.4 17.7 0.00 0.00 0.00 9 1005.1
20260509231024 38 273 6.4 17.7 0.00 0.00 0.00 9 1005.1
20260509230522 38 244 4.8 16.1 0.00 0.00 0.00 9 1005.1
20260509230050 38 298 6.4 16.1 0.00 0.00 0.00 10 1005.2
20260509225526 38 319 4.8 14.5 0.00 0.00 0.00 11 1005.3
20260509225025 38 327 4.8 14.5 0.00 0.00 0.00 11 1005.2
20260509224535 38 340 4.8 14.5 0.00 0.00 0.00 11 1005.3
20260509224025 38 299 4.8 20.9 0.00 0.00 0.00 10 1005.4
20260509223524 38 352 9.7 20.9 0.00 0.00 0.00 10 1005.5
20260509223039 38 309 6.4 16.1 0.00 0.00 0.00 10 1005.5
20260509222523 38 338 3.2 14.5 0.00 0.00 0.00 10 1005.6
20260509222023 38 0 4.8 14.5 0.00 0.00 0.00 10 1005.7
20260509221540 38 324 6.4 14.5 0.00 0.00 0.00 10 1005.9
20260509221024 38 317 3.2 16.1 0.00 0.00 0.00 10 1005.9
20260509220525 38 325 6.4 16.1 0.00 0.00 0.00 10 1006.1
20260509220039 38 278 3.2 16.1 0.00 0.00 0.00 10 1006.0
20260509215526 38 333 4.8 16.1 0.00 0.00 0.00 10 1006.1
20260509215025 38 288 4.8 17.7 0.00 0.00 0.00 10 1006.2
20260509214537 38 316 6.4 17.7 0.00 0.00 0.00 10 1006.2
20260509214024 38 322 4.8 17.7 0.00 0.00 0.00 10 1006.2
20260509213524 38 0 1.6 17.7 0.00 0.00 0.00 10 1006.3
20260509213058 38 334 6.4 22.5 0.00 0.00 0.00 10 1006.4
20260509212524 38 331 4.8 22.5 0.00 0.00 0.00 11 1006.4
20260509212024 38 264 6.4 17.7 0.00 0.00 0.00 10 1006.4
20260509211606 38 311 4.8 14.5 0.00 0.00 0.00 10 1006.5
20260509211024 38 277 4.8 20.9 0.00 0.00 0.00 11 1006.5
20260509210524 38 348 6.4 20.9 0.00 0.00 0.00 11 1006.5
20260509210040 38 297 3.2 14.5 0.00 0.00 0.00 10 1006.6
20260509205525 37 247 3.2 14.5 0.00 0.00 0.00 10 1006.8
20260509205023 37 304 6.4 17.7 0.00 0.00 0.00 11 1007.0
20260509204551 37 250 6.4 17.7 0.00 0.00 0.00 11 1007.1
20260509204028 37 316 6.4 17.7 0.00 0.00 0.00 11 1007.2
20260509203524 37 242 3.2 16.1 0.00 0.00 0.00 11 1007.1
20260509203052 37 0 6.4 17.7 0.00 0.00 0.00 12 1007.3
20260509202524 37 350 1.6 17.7 0.00 0.00 0.00 12 1007.4
20260509202025 37 287 6.4 17.7 0.00 0.00 0.00 11 1007.5
20260509201544 37 318 6.4 16.1 0.00 0.00 0.00 11 1007.5
20260509201024 37 298 4.8 14.5 0.00 0.00 0.00 12 1007.6
20260509200526 36 299 3.2 14.5 0.00 0.00 0.00 12 1007.7
20260509200040 36 327 4.8 14.5 0.00 0.00 0.00 12 1007.8
20260509195523 36 271 4.8 14.5 0.00 0.00 0.00 12 1007.8
20260509195024 36 298 1.6 14.5 0.00 0.00 0.00 13 1007.8
20260509194542 36 302 4.8 16.1 0.00 0.00 0.00 12 1008.0
20260509194026 36 309 6.4 16.1 0.00 0.00 0.00 13 1008.0
20260509193525 36 286 4.8 16.1 0.00 0.00 0.00 13 1008.0
20260509193039 36 316 4.8 16.1 0.00 0.00 0.00 13 1008.1
20260509192523 36 277 0.0 14.5 0.00 0.00 0.00 13 1008.2
20260509192025 36 331 4.8 14.5 0.00 0.00 0.00 13 1008.2
20260509191539 36 204 1.6 12.9 0.00 0.00 0.00 13 1008.2
20260509191030 36 255 3.2 12.9 0.00 0.00 0.00 13 1008.3
20260509190524 35 14 3.2 16.1 0.00 0.00 0.00 13 1008.5
20260509190048 35 327 4.8 16.1 0.00 0.00 0.00 13 1008.4
20260509185524 35 342 3.2 16.1 0.00 0.00 0.00 13 1008.5
20260509185025 35 9 4.8 12.9 0.00 0.00 0.00 14 1008.6
20260509184540 35 259 1.6 9.7 0.00 0.00 0.00 14 1008.7
20260509184024 35 348 1.6 11.3 0.00 0.00 0.00 13 1008.7
20260509183526 35 303 3.2 11.3 0.00 0.00 0.00 13 1008.8
20260509183041 35 333 1.6 12.9 0.00 0.00 0.00 13 1008.8
20260509182524 35 254 3.2 14.5 0.00 0.00 0.00 13 1008.9
20260509182026 35 292 4.8 14.5 0.00 0.00 0.00 13 1008.9
20260509181539 35 325 3.2 8.0 0.00 0.00 0.00 14 1009.0
20260509181024 35 42 1.6 11.3 0.00 0.00 0.00 14 1009.2
20260509180524 34 252 1.6 11.3 0.00 0.00 0.00 15 1009.2
20260509180039 33 340 3.2 9.7 0.00 0.00 0.00 14 1009.2
20260509175524 34 0 3.2 12.9 0.00 0.00 0.00 15 1009.2
20260509175024 35 257 1.6 14.5 0.00 0.00 0.00 14 1009.3
20260509174550 35 256 3.2 14.5 0.00 0.00 0.00 14 1009.4
20260509174028 35 213 1.6 6.4 0.00 0.00 0.00 15 1009.4
20260509173523 34 114 1.6 8.0 0.00 0.00 0.00 15 1009.5
20260509173039 34 140 1.6 8.0 0.00 0.00 0.00 15 1009.5
20260509172525 34 151 1.6 11.3 0.00 0.00 0.00 15 1009.6
20260509172024 33 0 1.6 11.3 0.00 0.00 0.00 16 1009.6
20260509171539 33 84 3.2 11.3 0.00 0.00 0.00 15 1009.6
20260509171023 34 115 1.6 6.4 0.00 0.00 0.00 15 1009.6
20260509170524 33 103 0.0 4.8 0.00 0.00 0.00 15 1009.6
20260509170039 33 153 0.0 6.4 0.00 0.00 0.00 16 1009.7
20260509165523 33 5 0.0 9.7 0.00 0.00 0.00 17 1009.6
20260509165023 32 169 1.6 9.7 0.00 0.00 0.00 17 1009.6
20260509164535 32 147 1.6 9.7 0.00 0.00 0.00 17 1009.5
20260509164023 32 0 0.0 6.4 0.00 0.00 0.00 17 1009.6
20260509163524 32 208 1.6 6.4 0.00 0.00 0.00 17 1009.6
20260509163049 32 206 0.0 6.4 0.00 0.00 0.00 17 1009.6
20260509162524 32 96 0.0 6.4 0.00 0.00 0.00 18 1009.6
20260509162024 32 141 0.0 4.8 0.00 0.00 0.00 19 1009.6
20260509161542 31 0 1.6 4.8 0.00 0.00 0.00 18 1009.5
20260509161028 31 58 0.0 4.8 0.00 0.00 0.00 19 1009.6
20260509160524 31 202 0.0 4.8 0.00 0.00 0.00 19 1009.6
20260509160040 30 0 0.0 6.4 0.00 0.00 0.00 20 1009.6
20260509155524 30 0 1.6 6.4 0.00 0.00 0.00 20 1009.6
20260509155027 30 0 0.0 6.4 0.00 0.00 0.00 22 1009.6
20260509154540 29 78 1.6 6.4 0.00 0.00 0.00 21 1009.6
20260509154024 29 103 1.6 6.4 0.00 0.00 0.00 22 1009.6
20260509153524 28 76 1.6 6.4 0.00 0.00 0.00 23 1009.7
20260509153047 28 96 1.6 8.0 0.00 0.00 0.00 24 1009.7
20260509152524 28 0 1.6 8.0 0.00 0.00 0.00 25 1009.6
20260509152027 27 165 1.6 9.7 0.00 0.00 0.00 25 1009.7
20260509151536 27 137 1.6 9.7 0.00 0.00 0.00 25 1009.6
20260509151025 27 142 1.6 6.4 0.00 0.00 0.00 26 1009.6
20260509150528 26 159 1.6 9.7 0.00 0.00 0.00 27 1009.7
20260509150041 26 153 3.2 11.3 0.00 0.00 0.00 27 1009.6
20260509145525 26 153 3.2 11.3 0.00 0.00 0.00 27 1009.6
20260509145024 25 146 3.2 11.3 0.00 0.00 0.00 27 1009.5
20260509144539 25 128 3.2 11.3 0.00 0.00 0.00 27 1009.7
20260509144024 25 146 4.8 11.3 0.00 0.00 0.00 28 1009.6
20260509143525 25 184 3.2 11.3 0.00 0.00 0.00 29 1009.6
20260509143039 24 155 3.2 8.0 0.00 0.00 0.00 29 1009.4
20260509142523 24 171 1.6 8.0 0.00 0.00 0.00 29 1009.4
20260509142024 23 109 3.2 9.7 0.00 0.00 0.00 29 1009.3
20260509141539 23 102 1.6 9.7 0.00 0.00 0.00 29 1009.4
20260509141025 23 165 3.2 9.7 0.00 0.00 0.00 29 1009.4
20260509140524 23 155 1.6 6.4 0.00 0.00 0.00 30 1009.3
20260509140049 22 130 1.6 9.7 0.00 0.00 0.00 31 1009.3
20260509135527 22 109 3.2 9.7 0.00 0.00 0.00 31 1009.1
20260509135023 22 100 3.2 9.7 0.00 0.00 0.00 31 1009.1
20260509134549 21 98 3.2 9.7 0.00 0.00 0.00 32 1009.1
20260509134024 21 126 1.6 9.7 0.00 0.00 0.00 32 1009.1
20260509133524 21 117 3.2 9.7 0.00 0.00 0.00 32 1009.1
20260509133053 21 103 1.6 9.7 0.00 0.00 0.00 32 1009.0
20260509132525 20 129 3.2 11.3 0.00 0.00 0.00 33 1009.0
20260509132023 20 101 1.6 11.3 0.00 0.00 0.00 33 1008.8
20260509131540 20 96 4.8 11.3 0.00 0.00 0.00 33 1008.8
20260509131023 20 100 3.2 9.7 0.00 0.00 0.00 33 1008.8
20260509130523 20 99 3.2 9.7 0.00 0.00 0.00 33 1008.7
20260509130039 20 102 3.2 9.7 0.00 0.00 0.00 33 1008.5
20260509125525 20 97 3.2 6.4 0.00 0.00 0.00 33 1008.6
20260509125024 20 143 1.6 9.7 0.00 0.00 0.00 33 1008.5
20260509124539 19 109 3.2 9.7 0.00 0.00 0.00 33 1008.3
20260509124025 19 102 1.6 6.4 0.00 0.00 0.00 33 1008.1
20260509123524 20 105 3.2 6.4 0.00 0.00 0.00 33 1008.2
20260509123040 20 108 1.6 4.8 0.00 0.00 0.00 32 1008.1
20260509122524 20 110 1.6 4.8 0.00 0.00 0.00 32 1008.1
20260509122024 20 102 1.6 4.8 0.00 0.00 0.00 32 1008.0
20260509121541 20 102 1.6 4.8 0.00 0.00 0.00 31 1007.9
20260509121025 20 0 1.6 6.4 0.00 0.00 0.00 31 1007.9
20260509120524 20 103 1.6 6.4 0.00 0.00 0.00 32 1007.8
20260509120040 20 111 3.2 6.4 0.00 0.00 0.00 32 1007.8
20260509115523 20 109 3.2 6.4 0.00 0.00 0.00 32 1007.7
20260509115024 20 109 1.6 4.8 0.00 0.00 0.00 32 1007.8
20260509114547 20 109 1.6 4.8 0.00 0.00 0.00 32 1007.6
20260509114027 20 109 1.6 4.8 0.00 0.00 0.00 31 1007.7
20260509113523 20 109 1.6 6.4 0.00 0.00 0.00 32 1007.6
20260509113046 20 109 1.6 6.4 0.00 0.00 0.00 32 1007.7
20260509112524 20 109 3.2 6.4 0.00 0.00 0.00 31 1007.6
20260509112024 20 139 0.0 4.8 0.00 0.00 0.00 32 1007.7
20260509111542 20 139 1.6 4.8 0.00 0.00 0.00 31 1007.6
20260509111025 20 139 1.6 4.8 0.00 0.00 0.00 31 1007.5
20260509110523 21 139 0.0 3.2 0.00 0.00 0.00 31 1007.5
20260509110040 21 139 0.0 9.7 0.00 0.00 0.00 31 1007.4
20260509105529 21 139 0.0 9.7 0.00 0.00 0.00 31 1007.5
20260509105024 21 139 4.8 9.7 0.00 0.00 0.00 30 1007.4
20260509104540 21 105 1.6 9.7 0.00 0.00 0.00 31 1007.4
20260509104023 21 143 1.6 9.7 0.00 0.00 0.00 30 1007.4
20260509103524 21 157 4.8 9.7 0.00 0.00 0.00 30 1007.4
20260509103039 21 154 3.2 6.4 0.00 0.00 0.00 29 1007.4
20260509102525 21 146 1.6 8.0 0.00 0.00 0.00 29 1007.5
20260509102025 21 0 3.2 8.0 0.00 0.00 0.00 29 1007.4
20260509101540 21 145 3.2 6.4 0.00 0.00 0.00 29 1007.5
20260509101024 21 145 0.0 8.0 0.00 0.00 0.00 29 1007.6
20260509100524 21 0 3.2 8.0 0.00 0.00 0.00 29 1007.4
20260509100048 21 144 1.6 6.4 0.00 0.00 0.00 30 1007.5
20260509095524 21 0 1.6 6.4 0.00 0.00 0.00 30 1007.6
20260509095024 22 145 3.2 4.8 0.00 0.00 0.00 31 1007.5
20260509094541 22 145 1.6 6.4 0.00 0.00 0.00 31 1007.6
20260509094024 22 145 3.2 6.4 0.00 0.00 0.00 31 1007.5
20260509093525 22 145 3.2 6.4 0.00 0.00 0.00 31 1007.6
20260509093042 22 148 0.0 4.8 0.00 0.00 0.00 31 1007.4
20260509092523 22 148 1.6 4.8 0.00 0.00 0.00 32 1007.5
20260509092024 22 0 0.0 3.2 0.00 0.00 0.00 31 1007.5